EW3693 Weather Reports


Display with metric or nautical units.
time (UTC)temp
F
wind
direction
speed
MPH
gust
MPH
rain 1hr
in
rain 24hr
in
rain mn
in
humidity
%
barometer
mb
20260904023518 62 0 5.0 12.0 0.00 0.02 0.00 90 1011.5
20260904022518 62 0 6.0 9.0 0.00 0.02 0.00 90 1011.5
20260904021518 62 0 6.0 10.0 0.00 0.02 0.00 90 1011.7
20260904020518 62 0 9.0 13.0 0.00 0.02 0.00 90 1011.9
20260904015517 62 0 9.0 12.0 0.00 0.02 0.00 91 1011.8
20260904014518 62 0 9.0 12.0 0.00 0.02 0.00 91 1011.9
20260904013538 62 0 9.0 12.0 0.00 0.02 0.00 91 1012.1
20260904012517 62 0 9.0 13.0 0.00 0.02 0.00 91 1012.1
20260904011518 62 0 10.0 16.0 0.00 0.02 0.00 91 1012.3
20260904010518 62 0 10.0 14.0 0.00 0.02 0.00 91 1012.2
20260904005537 62 0 11.0 16.0 0.00 0.02 0.00 91 1012.4
20260904004517 62 0 13.0 19.0 0.00 0.02 0.00 91 1012.5
20260904003518 62 0 12.0 19.0 0.00 0.02 0.00 91 1012.5
20260904002517 62 0 12.0 17.0 0.00 0.02 0.00 91 1012.4
20260904001518 62 0 12.0 17.0 0.00 0.02 0.00 91 1012.5
20260904000537 62 0 11.0 14.0 0.00 0.02 0.00 91 1012.5
20260903235517 62 0 11.0 15.0 0.00 0.02 0.00 91 1012.5
20260903234517 62 0 10.0 13.0 0.00 0.02 0.00 90 1012.6
20260903233517 63 0 12.0 15.0 0.00 0.02 0.00 90 1012.6
20260903232537 63 0 11.0 14.0 0.00 0.02 0.00 90 1012.7
20260903231557 63 0 12.0 16.0 0.00 0.02 0.00 91 1012.8
20260903230517 62 0 11.0 16.0 0.00 0.02 0.00 91 1012.9
20260903225537 62 0 11.0 14.0 0.00 0.02 0.00 91 1012.9
20260903224518 62 0 9.0 11.0 0.00 0.02 0.00 91 1012.8
20260903223518 62 0 10.0 14.0 0.00 0.02 0.00 91 1012.9
20260903222517 63 0 10.0 14.0 0.00 0.02 0.00 91 1013.0
20260903221517 63 0 10.0 14.0 0.00 0.02 0.00 91 1012.9
20260903220517 63 0 10.0 16.0 0.00 0.02 0.00 91 1013.1
20260903215517 63 0 13.0 17.0 0.00 0.02 0.02 91 1013.1
20260903214517 63 0 11.0 16.0 0.00 0.02 0.02 92 1013.3
20260903213537 62 0 9.0 14.0 0.00 0.02 0.02 92 1013.2
20260903212517 63 0 4.0 6.0 0.00 0.02 0.02 92 1013.1
20260903211537 62 0 7.0 10.0 0.00 0.02 0.02 91 1013.2
20260903210537 63 0 6.0 9.0 0.00 0.02 0.02 91 1013.1
20260903205517 63 0 8.0 11.0 0.00 0.02 0.02 91 1013.2
20260903204537 63 0 8.0 11.0 0.00 0.02 0.02 90 1013.2
20260903203517 63 0 10.0 12.0 0.00 0.02 0.02 90 1013.1
20260903202517 63 0 12.0 16.0 0.00 0.02 0.02 90 1013.0
20260903201557 63 0 14.0 21.0 0.00 0.02 0.02 91 1013.0
20260903200517 63 0 15.0 20.0 0.00 0.02 0.02 92 1012.9
20260903195537 63 0 9.0 11.0 0.00 0.02 0.02 92 1013.0
20260903194517 63 0 6.0 9.0 0.00 0.02 0.02 91 1013.0
20260903193517 64 0 7.0 10.0 0.00 0.02 0.02 90 1013.0
20260903192517 64 0 9.0 11.0 0.00 0.02 0.02 90 1013.1
20260903191517 65 0 13.0 17.0 0.00 0.02 0.02 89 1013.1
20260903190517 64 0 13.0 19.0 0.00 0.02 0.02 90 1013.1
20260903185517 64 0 10.0 15.0 0.00 0.02 0.02 90 1012.9
20260903184517 64 0 6.0 9.0 0.00 0.02 0.02 90 1013.0
20260903183517 65 0 8.0 11.0 0.00 0.02 0.02 90 1012.9
20260903182517 64 0 10.0 14.0 0.00 0.02 0.02 91 1012.6
20260903181517 65 0 8.0 14.0 0.00 0.02 0.02 91 1012.7
20260903180537 65 0 8.0 11.0 0.00 0.02 0.02 91 1012.6
20260903175517 65 0 9.0 13.0 0.00 0.02 0.02 91 1012.5
20260903174516 66 0 10.0 14.0 0.00 0.02 0.02 91 1012.4
20260903173517 66 0 11.0 16.0 0.00 0.02 0.02 91 1012.4
20260903172516 66 0 5.0 13.0 0.00 0.02 0.02 91 1012.4
20260903171516 66 0 8.0 13.0 0.00 0.02 0.02 90 1012.4
20260903170517 67 0 9.0 13.0 0.00 0.02 0.02 89 1012.4
20260903165536 67 0 11.0 14.0 0.00 0.02 0.02 89 1012.1
20260903164516 68 0 8.0 14.0 0.00 0.02 0.02 88 1012.2
20260903163516 68 0 9.0 17.0 0.00 0.02 0.02 89 1012.2
20260903162517 68 0 11.0 15.0 0.00 0.02 0.02 88 1012.3
20260903161516 68 0 10.0 16.0 0.00 0.02 0.02 87 1012.4
20260903160517 68 0 13.0 20.0 0.00 0.02 0.02 88 1012.2
20260903155516 68 0 10.0 16.0 0.00 0.02 0.02 87 1012.2
20260903154516 68 0 10.0 19.0 0.00 0.02 0.02 87 1012.2
20260903153518 69 0 9.0 17.0 0.00 0.02 0.02 87 1012.1
20260903152516 69 0 12.0 20.0 0.00 0.02 0.02 86 1012.1
20260903151518 69 0 11.0 18.0 0.00 0.02 0.02 88 1012.2
20260903150518 68 0 12.0 18.0 0.00 0.02 0.02 88 1012.3
20260903145559 68 0 12.0 18.0 0.00 0.02 0.02 89 1012.5
20260903144518 67 0 11.0 16.0 0.00 0.02 0.02 89 1012.5
20260903143518 67 0 10.0 18.0 0.00 0.02 0.02 89 1012.6
20260903142518 68 0 10.0 16.0 0.00 0.02 0.02 91 1012.5
20260903141518 66 0 12.0 18.0 0.00 0.02 0.02 90 1012.6
20260903140518 66 0 12.0 17.0 0.00 0.02 0.02 90 1012.6
20260903135518 66 0 13.0 20.0 0.00 0.02 0.02 89 1012.7
20260903134538 66 0 10.0 17.0 0.01 0.02 0.02 89 1012.7
20260903133518 66 0 9.0 16.0 0.01 0.02 0.02 89 1012.6
20260903132518 65 0 11.0 18.0 0.01 0.02 0.02 90 1012.7
20260903131518 65 0 9.0 16.0 0.01 0.02 0.02 91 1012.7
20260903130518 65 0 8.0 13.0 0.01 0.02 0.02 92 1012.6
20260903124518 65 0 9.0 17.0 0.00 0.02 0.02 94 1012.8
20260903123518 64 0 8.0 13.0 0.00 0.02 0.02 94 1012.7
20260903122518 64 0 8.0 14.0 0.00 0.02 0.02 94 1012.9
20260903121518 64 0 12.0 20.0 0.00 0.02 0.02 92 1012.9
20260903120518 65 0 9.0 15.0 0.00 0.02 0.02 91 1012.9
20260903115518 65 0 9.0 16.0 0.00 0.02 0.02 88 1012.7
20260903114518 66 0 12.0 18.0 0.00 0.02 0.02 85 1012.8
20260903113520 67 0 11.0 20.0 0.00 0.02 0.02 84 1012.7
20260903112538 67 0 12.0 20.0 0.00 0.02 0.02 84 1012.8
20260903111518 67 0 11.0 18.0 0.00 0.02 0.02 85 1012.9
20260903110518 67 0 11.0 21.0 0.00 0.02 0.02 85 1013.0
20260903105538 66 0 15.0 23.0 0.00 0.02 0.02 84 1013.1
20260903104518 67 0 16.0 23.0 0.00 0.02 0.02 84 1013.3
20260903103518 66 0 12.0 19.0 0.00 0.02 0.02 84 1013.1
20260903102517 67 0 11.0 19.0 0.00 0.02 0.02 82 1013.1
20260903101518 66 0 11.0 19.0 0.00 0.02 0.02 83 1013.2
20260903100538 66 0 10.0 19.0 0.00 0.02 0.02 84 1013.4
20260903095517 66 0 8.0 15.0 0.00 0.02 0.02 84 1013.5
20260903094518 66 0 10.0 18.0 0.00 0.02 0.02 84 1013.5
20260903093538 66 0 7.0 15.0 0.00 0.02 0.02 84 1013.5
20260903092517 66 0 7.0 16.0 0.00 0.02 0.02 83 1013.5
20260903091518 66 0 9.0 16.0 0.00 0.02 0.02 83 1013.6
20260903090517 67 0 7.0 13.0 0.00 0.02 0.02 84 1013.9
20260903085517 65 0 8.0 20.0 0.00 0.02 0.02 85 1013.8
20260903084518 65 0 7.0 15.0 0.00 0.02 0.02 86 1014.1
20260903083517 64 0 10.0 18.0 0.00 0.02 0.02 86 1014.0
20260903082518 63 0 6.0 12.0 0.00 0.02 0.02 88 1014.0
20260903081558 62 0 6.0 12.0 0.00 0.02 0.02 89 1014.1
20260903080518 62 0 7.0 12.0 0.00 0.02 0.02 90 1014.1
20260903075518 62 0 7.0 16.0 0.00 0.02 0.02 89 1014.2
20260903074518 62 0 7.0 14.0 0.00 0.02 0.02 90 1014.3
20260903073517 61 0 7.0 14.0 0.00 0.02 0.02 90 1014.4
20260903072517 61 0 8.0 13.0 0.00 0.02 0.02 90 1014.5
20260903071517 61 0 9.0 16.0 0.00 0.02 0.02 89 1014.6
20260903070538 62 0 9.0 18.0 0.00 0.02 0.02 90 1014.7
20260903065537 61 0 9.0 17.0 0.00 0.02 0.02 90 1014.7
20260903064557 61 0 5.0 12.0 0.00 0.02 0.02 91 1014.9
20260903063537 61 0 6.0 13.0 0.00 0.02 0.02 92 1015.0
20260903062517 60 0 6.0 12.0 0.00 0.02 0.02 93 1015.1
20260903061517 60 0 5.0 11.0 0.00 0.02 0.02 93 1015.0
20260903060517 60 0 4.0 10.0 0.00 0.02 0.02 93 1015.1
20260903055518 59 0 5.0 11.0 0.00 0.02 0.02 94 1015.2
20260903054517 59 0 5.0 10.0 0.00 0.02 0.02 94 1015.5
20260903053517 59 0 6.0 15.0 0.00 0.02 0.02 94 1015.5
20260903052517 59 0 6.0 11.0 0.00 0.02 0.02 95 1015.7
20260903051537 59 0 5.0 11.0 0.00 0.02 0.02 95 1015.8
20260903050517 59 0 4.0 8.0 0.00 0.02 0.02 95 1015.8
20260903045517 58 0 4.0 9.0 0.01 0.02 0.02 95 1015.8
20260903044517 58 0 3.0 8.0 0.01 0.02 0.02 95 1016.0
20260903043517 58 0 4.0 8.0 0.01 0.02 0.02 95 1016.2
20260903042517 58 203 3.0 6.0 0.01 0.02 0.02 95 1016.1
20260903041517 58 203 3.0 5.0 0.01 0.02 0.02 95 1016.2
20260903040517 58 180 3.0 9.0 0.01 0.02 0.02 95 1016.3
20260903035517 58 0 4.0 8.0 0.01 0.01 0.01 94 1016.3
20260903034517 59 0 3.0 9.0 0.01 0.01 0.01 94 1016.4
20260903033537 59 203 3.0 7.0 0.01 0.01 0.01 94 1016.5
20260903032517 59 203 2.0 5.0 0.01 0.01 0.01 94 1016.5
20260903031517 59 203 2.0 6.0 0.01 0.01 0.01 94 1016.6
20260903030517 59 203 2.0 9.0 0.01 0.01 0.01 93 1016.7
20260903025517 59 203 2.0 8.0 0.00 0.00 0.00 93 1016.8
20260903024517 59 203 1.0 3.0 0.00 0.00 0.00 93 1016.8